[[{"header":{"parameterUnit":"m.s-1","parameterCategory":1,"la1":30.2991,"la2":30.254,"lo1":-89.0895,"lo2":-89.0444,"dy":0.0017,"dx":0.0017,"nx":28,"ny":28,"refTime":"2024-06-22T21:00:00:Z","depth":0,"parameterNumber":2,"parameterNumberName":"U-component_of_WINDS"},"data":[0,0,0,0,0,0,0,0,0,0,0,0,0,0,0,0,0,0,0,0,0,0,0,0,0,0,0,0,0,0,0,0,0,0,0,0,0,0,0,0,0,0,0,0,0,0,0,0,0,0,0,0,0,0,0,0,0,0,0.3254,0.3255,0,0.3367,0.3368,0.3369,0.3433,0.3433,0.3433,0.3433,0.3548,0.3551,0.3554,0,0,0,0,0,0,0,0,0,0,0,0,0,0.3093,0.3096,0.3254,0.3255,0.3257,0.3366,0.3368,0.3369,0.3432,0.3433,0.3433,0.3433,0.3547,0.355,0.3554,0,0,0,0,0,0,0,0,0,0,0,0,0,0.318,0.3096,0.3254,0.3302,0.3307,0.3366,0.3368,0.337,0.3432,0.3433,0.3433,0.3433,0.3546,0.355,0.3554,0.3574,0,0,0.3567,0.3569,0,0,0,0,0,0,0,0,0.3175,0.3186,0.3293,0.3298,0.3304,0.3386,0.3353,0.3438,0.3432,0.3385,0.3433,0.3434,0.3494,0.3502,0.3523,0.358,0.3585,0.3568,0.357,0.3572,0.3573,0,0,0,0,0,0,0,0.3169,0.3181,0.3299,0.3295,0.3302,0.3317,0.333,0.337,0.3436,0.3389,0.3394,0.3406,0.3497,0.3518,0.3526,0.3586,0.3568,0.3571,0.3574,0.3576,0.3665,0.3665,0,0,0,0,0,0,0.3155,0.3176,0.3295,0.3302,0.3239,0.332,0.3334,0.3359,0.3436,0.3448,0.3406,0.3409,0.3511,0.3521,0.353,0.3558,0.3572,0.3576,0.3579,0.3665,0.3665,0.3665,0,0,0,0,0,0,0.3151,0.3165,0.329,0.324,0.3257,0.3322,0.335,0.3361,0.3383,0.3449,0.3461,0.3416,0.3512,0.3524,0.3563,0.3563,0.3578,0.3582,0.3665,0.3665,0.3665,0.3614,0,0,0,0,0,0,0.3147,0.3163,0.3172,0.324,0.326,0.3321,0.335,0.3363,0.339,0.3395,0.3461,0.3472,0.3513,0.3556,0.3567,0.3569,0.3585,0.3666,0.3665,0.3665,0.3616,0.3612,0.3609,0,0,0,0,0,0.3141,0.3153,0.3172,0.3186,0.3272,0.3321,0.3332,0.3379,0.339,0.3399,0.3441,0.347,0.3561,0.3559,0.3572,0.3576,0.3666,0.3665,0.3665,0.3618,0.3613,0.3609,0,0,0,0,0,0,0.3084,0.3163,0.3185,0.322,0.3263,0.3332,0.3344,0.3372,0.3413,0.3416,0.3472,0.3486,0.3519,0.3552,0.3548,0.3599,0.3617,0.3619,0.3577,0.3573,0.3569,0.356,0.3589,0,0,0,0,0,0.3075,0.3109,0.3177,0.3201,0.3222,0.3279,0.3302,0.3334,0.3381,0.34,0.3445,0.3489,0.3528,0.3552,0.3592,0.3622,0.3636,0.363,0.3627,0.3623,0.3624,0.3642,0.3639,0.3663,0.3663,0.3663,0,0,0.3058,0.3106,0.3124,0.3191,0.3228,0.3261,0.3294,0.3328,0.3353,0.3405,0.3444,0.3479,0.3532,0.3566,0.3583,0.3594,0.3621,0.3623,0.3619,0.3622,0.3641,0.3638,0.3636,0.3663,0.3663,0.3663,0,0,0.3044,0.3084,0.3108,0.3145,0.3201,0.3239,0.3244,0.3309,0.3334,0.3374,0.3413,0.3444,0.3509,0.3545,0.3572,0.3571,0.3599,0.3582,0.3563,0.3579,0.3577,0.3576,0.3574,0.3573,0.3583,0.3583,0.3583,0,0.3015,0.3067,0.3117,0.3149,0.3177,0.3225,0.325,0.3283,0.3349,0.3367,0.3378,0.3461,0.35,0.3543,0.3542,0.3563,0.3571,0.3574,0.3573,0.3572,0.3572,0.3571,0.3571,0.358,0.3581,0.3581,0.3581,0,0.3029,0.3064,0.3077,0.314,0.3169,0.3197,0.3251,0.3275,0.3304,0.334,0.338,0.3429,0.3479,0.3491,0.352,0.3538,0.3543,0.3563,0.3582,0.3566,0.3566,0.3567,0.3577,0.3578,0.3578,0.3579,0,0,0.2982,0.3071,0.3075,0.3103,0.3169,0.3197,0.3227,0.3275,0.3294,0.3338,0.3364,0.3418,0.3437,0.3467,0.3501,0.3515,0.3509,0.3533,0.3535,0.3526,0.3531,0.3514,0.3513,0.3529,0.3529,0.3529,0.3526,0,0.2976,0.3032,0.3078,0.3117,0.3149,0.3196,0.3222,0.3264,0.3299,0.3332,0.3371,0.3408,0.343,0.3449,0.3465,0.3506,0.3511,0.3508,0.3553,0.3554,0.3537,0.3514,0.3497,0.3492,0.3526,0.3527,0.3527,0,0.2977,0.3019,0.3061,0.3122,0.3138,0.316,0.3208,0.3239,0.3288,0.3312,0.3345,0.338,0.3413,0.3429,0.3475,0.3472,0.3493,0.3516,0.3517,0.3522,0.3538,0.3517,0.3491,0.349,0.3527,0.3527,0.3527,0,0.2937,0.3004,0.3038,0.3061,0.3133,0.3148,0.3179,0.3228,0.3254,0.3296,0.3313,0.3358,0.3382,0.3416,0.3462,0.3469,0.3502,0.3522,0.3523,0.3522,0.3527,0.3526,0.3503,0.3542,0.3542,0.3542,0.3542,0,0.2926,0.2949,0.3021,0.3041,0.3069,0.3121,0.3146,0.3181,0.3225,0.3252,0.3296,0.3321,0.338,0.3412,0.3448,0.348,0.3491,0.3511,0.352,0.3507,0.3504,0.3521,0.3522,0.3542,0.3542,0.3542,0.3542,0,0.2885,0.2934,0.2974,0.3039,0.3056,0.3073,0.3129,0.3151,0.3188,0.3222,0.3234,0.3292,0.3332,0.3381,0.3437,0.3461,0.3489,0.3504,0.3472,0.3478,0.3475,0.3474,0.3461,0.3461,0.3501,0.35,0.35,0,0.2874,0.2893,0.2961,0.2983,0.3012,0.3047,0.3073,0.3125,0.3151,0.3208,0.3222,0.3265,0.3303,0.3364,0.3411,0.3454,0.3469,0.3462,0.3476,0.3461,0.3468,0.3466,0.3467,0.3458,0.3457,0.3456,0.3456,0,0.2849,0.2872,0.2909,0.2954,0.2985,0.3023,0.3063,0.3078,0.3138,0.3164,0.3206,0.3235,0.3291,0.3333,0.3382,0.3414,0.3444,0.3451,0.3453,0.3439,0.342,0.3429,0.3461,0.3451,0.3452,0.3452,0.3452,0.3452,0.2822,0.2841,0.2891,0.2931,0.2966,0.3002,0.3025,0.3066,0.3101,0.3151,0.318,0.322,0.3268,0.3336,0.3367,0.3398,0.341,0.3413,0.3414,0.3414,0.3409,0.3415,0.3408,0.3408,0.3408,0.3408,0.3408,0,0.2798,0.2833,0.2869,0.2923,0.2954,0.2981,0.3026,0.305,0.3084,0.3127,0.3163,0.3209,0.325,0.3301,0.3345,0.336,0.3376,0.337,0.3369,0.3376,0.3397,0.339,0.3357,0.3357,0.3357,0.3357,0.3357,0.3357,0.2789,0.2822,0.2851,0.2902,0.2937,0.2976,0.3,0.3033,0.3067,0.3118,0.3152,0.3184,0.323,0.3277,0.3316,0.333,0.3343,0.3333,0.3351,0.337,0.3374,0.3378,0.3372,0.3336,0.3336,0.3327,0.3327,0.3327]},{"header":{"parameterUnit":"m.s-1","parameterCategory":1,"la1":30.2991,"la2":30.254,"lo1":-89.0895,"lo2":-89.0444,"dy":0.0017,"dx":0.0017,"nx":28,"ny":28,"refTime":"2024-06-22T21:00:00:Z","depth":0,"parameterNumber":3,"parameterNumberName":"V-component_of_WINDS"},"data":[0,0,0,0,0,0,0,0,0,0,0,0,0,0,0,0,0,0,0,0,0,0,0,0,0,0,0,0,0,0,0,0,0,0,0,0,0,0,0,0,0,0,0,0,0,0,0,0,0,0,0,0,0,0,0,0,0,0,2.8147,2.8146,0,2.8112,2.8112,2.8112,2.8096,2.8096,2.8096,2.8096,2.8057,2.8055,2.8054,0,0,0,0,0,0,0,0,0,0,0,0,0,2.8195,2.8194,2.8147,2.8146,2.8146,2.8112,2.8112,2.8111,2.8096,2.8096,2.8096,2.8096,2.8057,2.8056,2.8054,0,0,0,0,0,0,0,0,0,0,0,0,0,2.8169,2.8194,2.8147,2.8134,2.8133,2.8113,2.8112,2.8111,2.8096,2.8096,2.8096,2.8096,2.8057,2.8056,2.8054,2.8043,0,0,2.8049,2.8048,0,0,0,0,0,0,0,0,2.817,2.8167,2.8136,2.8135,2.8133,2.8109,2.8115,2.8088,2.8096,2.811,2.8096,2.8096,2.8074,2.8071,2.8064,2.8041,2.8039,2.8049,2.8048,2.8047,2.8047,0,0,0,0,0,0,0,2.8172,2.8168,2.8133,2.8136,2.8134,2.8129,2.8125,2.8109,2.8091,2.8109,2.8107,2.8104,2.8073,2.8065,2.8063,2.8038,2.8049,2.8048,2.8047,2.8046,2.8004,2.8004,0,0,0,0,0,0,2.8176,2.817,2.8134,2.8132,2.8152,2.8128,2.8124,2.8116,2.8092,2.8088,2.8104,2.8103,2.8068,2.8065,2.8061,2.8046,2.8047,2.8046,2.8045,2.8004,2.8004,2.8004,0,0,0,0,0,0,2.8178,2.8173,2.8135,2.8151,2.8145,2.8127,2.8119,2.8116,2.8109,2.8088,2.8084,2.81,2.8068,2.8064,2.8048,2.8045,2.8045,2.8044,2.8005,2.8004,2.8004,2.8016,0,0,0,0,0,0,2.8179,2.8174,2.817,2.8151,2.8145,2.8124,2.8119,2.8115,2.8106,2.8105,2.8084,2.808,2.8068,2.805,2.8046,2.8042,2.8042,2.8005,2.8004,2.8004,2.8016,2.8017,2.8017,0,0,0,0,0,2.8181,2.8174,2.817,2.8166,2.814,2.8124,2.812,2.8107,2.8106,2.8102,2.8089,2.8081,2.8046,2.8049,2.8044,2.804,2.8005,2.8004,2.8004,2.8016,2.8016,2.8017,0,0,0,0,0,0,2.8192,2.8171,2.8167,2.8154,2.8141,2.8121,2.8115,2.8108,2.8094,2.8094,2.8077,2.8073,2.8058,2.8047,2.8051,2.8027,2.8025,2.8023,2.8035,2.8035,2.8036,2.8039,2.8041,0,0,0,0,0,2.8193,2.8183,2.8165,2.8155,2.8149,2.8133,2.8125,2.8117,2.8102,2.8096,2.8082,2.8067,2.8053,2.8043,2.8029,2.8015,2.8009,2.8009,2.801,2.801,2.8009,2.8001,2.8,2.8003,2.8003,2.8003,0,0,2.8195,2.8182,2.8177,2.8157,2.8146,2.8135,2.8129,2.8117,2.8108,2.8094,2.8079,2.8068,2.805,2.8035,2.8027,2.8025,2.8007,2.801,2.801,2.8009,2.8,2.8,2.8,2.8003,2.8003,2.8003,0,0,2.8193,2.8182,2.8173,2.8163,2.8147,2.8136,2.8134,2.8116,2.8109,2.8093,2.8083,2.8071,2.8047,2.8035,2.8025,2.8019,2.8011,2.8015,2.8017,2.8009,2.8008,2.8008,2.8006,2.8005,2.8014,2.8014,2.8014,0,2.8197,2.818,2.8169,2.8158,2.8149,2.8138,2.8128,2.8118,2.8098,2.8091,2.809,2.806,2.8047,2.8029,2.8027,2.802,2.8016,2.8017,2.801,2.8009,2.8009,2.8006,2.8005,2.8014,2.8014,2.8014,2.8014,0,2.8186,2.8175,2.8169,2.8152,2.8142,2.8132,2.8118,2.8109,2.8102,2.8092,2.8076,2.806,2.8043,2.8038,2.803,2.8018,2.8018,2.8013,2.801,2.8009,2.8007,2.8006,2.8015,2.8015,2.8015,2.8015,0,0,2.8189,2.8166,2.8164,2.8156,2.8138,2.8128,2.8117,2.8102,2.8095,2.8081,2.8071,2.8051,2.8047,2.8036,2.8027,2.802,2.8016,2.8016,2.8015,2.8016,2.8002,2.8005,2.8005,2.8011,2.801,2.801,2.8004,0,2.8184,2.8165,2.8155,2.8139,2.8129,2.8118,2.8109,2.8096,2.8086,2.8074,2.8063,2.8049,2.8045,2.8038,2.8031,2.8018,2.8013,2.8018,2.8,2.7999,2.8004,2.8003,2.8007,2.8001,2.8002,2.8002,2.8002,0,2.8175,2.8164,2.8148,2.8132,2.8127,2.8118,2.8103,2.8093,2.8078,2.8071,2.806,2.8051,2.8037,2.8036,2.8017,2.8021,2.8013,2.8005,2.8005,2.8002,2.8,2.8,2.7999,2.7998,2.8,2.8,2.8001,0,2.8179,2.8159,2.8147,2.8141,2.8121,2.8116,2.8107,2.8092,2.8084,2.807,2.8064,2.8049,2.804,2.8028,2.8015,2.8015,2.7997,2.7994,2.799,2.799,2.7986,2.7987,2.7983,2.7982,2.7982,2.7982,2.7982,0,2.8174,2.8165,2.8149,2.8141,2.8131,2.8118,2.8108,2.8098,2.8085,2.8075,2.8064,2.8055,2.8038,2.8026,2.8015,2.8001,2.7997,2.799,2.7987,2.7991,2.7992,2.7985,2.7985,2.7981,2.7981,2.7981,2.7981,0,2.8176,2.8165,2.8152,2.8135,2.8131,2.8123,2.8108,2.81,2.809,2.8077,2.8074,2.8057,2.8043,2.8028,2.8008,2.8001,2.7987,2.7983,2.7992,2.7991,2.7987,2.7988,2.7979,2.7977,2.7977,2.7977,2.7977,0,2.8174,2.8167,2.815,2.8143,2.8135,2.8124,2.8116,2.8103,2.8095,2.8078,2.8072,2.8057,2.8044,2.8021,2.8006,2.7991,2.7986,2.7985,2.7984,2.7988,2.7986,2.7987,2.7986,2.7985,2.7985,2.7985,2.7985,0,2.8171,2.8166,2.8155,2.8142,2.8133,2.8122,2.8111,2.8105,2.8091,2.8081,2.8067,2.8058,2.8038,2.8023,2.8006,2.7995,2.7987,2.7986,2.7984,2.7987,2.7993,2.799,2.7993,2.7986,2.7985,2.7985,2.7985,2.7985,2.817,2.8163,2.8151,2.8139,2.813,2.8119,2.8111,2.8101,2.8089,2.8074,2.8067,2.8052,2.8037,2.8014,2.8004,2.7991,2.7989,2.7987,2.7986,2.7986,2.7986,2.7995,2.7988,2.7988,2.7988,2.7988,2.7988,0,2.8166,2.8158,2.8147,2.8133,2.8123,2.8119,2.8106,2.8098,2.8086,2.8073,2.8062,2.8045,2.8031,2.8016,2.8,2.7993,2.7989,2.7989,2.7989,2.7987,2.7989,2.7992,2.7993,2.7993,2.7993,2.7993,2.7993,2.7993,2.8163,2.8152,2.8145,2.8129,2.812,2.8107,2.8101,2.8091,2.8081,2.8064,2.8052,2.8043,2.8029,2.8013,2.7999,2.7995,2.7989,2.7991,2.7985,2.7987,2.7987,2.7987,2.799,2.799,2.799,2.7984,2.7984,2.7984]}]]